When you browse on this site, cookies collect data to enhance your experience and personalize the content and advertising you see.
Visit our Privacy Policy to learn more. By continuing to use the site, you agree to this use of cookies and data.
  • In Czech Republic
  • List of Countries
  • For 7 days
  • Water Temperature
  • Weather Map
  • Weather Widgets
  • user-avatar
    Login

    Hourly Weather Nakhchivan

    Today, 23 August, Friday

    Time Temperature Precipitation Wind Pressure Humidity
    00:00 +26°C° 0 mm 1 mps 686 mmHg 24%
    01:00 +26°C° 0 mm 1 mps 686 mmHg 26%
    02:00 +25°C° 0 mm 1 mps 686 mmHg 28%
    03:00 +25°C° 0 mm 1 mps 685 mmHg 29%
    04:00 +25°C° 0 mm 1 mps 685 mmHg 30%
    05:00 +24°C° 0 mm 1 mps 686 mmHg 30%
    06:00 +24°C° 0 mm 1 mps 686 mmHg 31%
    07:00 +27°C° 0 mm 1 mps 686 mmHg 27%
    08:00 +29°C° 0 mm 1 mps 687 mmHg 23%
    09:00 +32°C° 0 mm 1 mps 687 mmHg 18%
    10:00 +35°C° 0 mm 2 mps 687 mmHg 15%
    11:00 +37°C° 0 mm 2 mps 687 mmHg 13%
    12:00 +39°C° 0 mm 3 mps 687 mmHg 11%
    13:00 +41°C° 0 mm 4 mps 687 mmHg 9%
    14:00 +42°C° 0 mm 5 mps 687 mmHg 8%
    15:00 +45°C° 0 mm 6 mps 687 mmHg 6%
    16:00 +43°C° 0 mm 7 mps 686 mmHg 9%
    17:00 +40°C° 0 mm 8 mps 686 mmHg 12%
    18:00 +38°C° 0 mm 8 mps 686 mmHg 16%
    19:00 +34°C° 0 mm 6 mps 686 mmHg 20%
    20:00 +32°C° 0 mm 5 mps 686 mmHg 25%
    21:00 +29°C° 0 mm 3 mps 686 mmHg 30%
    22:00 +28°C° 0 mm 2 mps 686 mmHg 32%
    23:00 +27°C° 0 mm 2 mps 686 mmHg 34%

    Tomorrow, 24 August, Saturday

    Time Temperature Precipitation Wind Pressure Humidity
    00:00 +26°C° 0 mm 1 mps 686 mmHg 36%
    01:00 +26°C° 0 mm 1 mps 686 mmHg 37%
    02:00 +25°C° 0 mm 1 mps 686 mmHg 38%
    03:00 +24°C° 0 mm 1 mps 686 mmHg 40%
    04:00 +22°C° 0 mm 0 mps 686 mmHg 40%
    05:00 +22°C° 0 mm 0 mps 686 mmHg 40%
    06:00 +22°C° 0 mm 0 mps 687 mmHg 41%
    07:00 +24°C° 0 mm 0 mps 687 mmHg 36%
    08:00 +29°C° 0 mm 1 mps 688 mmHg 31%
    09:00 +31°C° 0 mm 1 mps 688 mmHg 26%
    10:00 +32°C° 0 mm 1 mps 688 mmHg 23%
    11:00 +34°C° 0 mm 1 mps 688 mmHg 20%
    12:00 +36°C° 0 mm 1 mps 688 mmHg 17%
    13:00 +37°C° 0 mm 1 mps 688 mmHg 15%
    14:00 +39°C° 0 mm 1 mps 687 mmHg 12%
    15:00 +40°C° 0 mm 2 mps 687 mmHg 10%
    16:00 +39°C° 0 mm 2 mps 687 mmHg 11%
    17:00 +39°C° 0 mm 3 mps 687 mmHg 12%
    18:00 +38°C° 0 mm 3 mps 687 mmHg 13%
    19:00 +36°C° 0 mm 4 mps 688 mmHg 18%
    20:00 +33°C° 0 mm 5 mps 688 mmHg 23%
    21:00 +30°C° 0 mm 5 mps 688 mmHg 28%
    22:00 +29°C° 0 mm 4 mps 688 mmHg 32%
    23:00 +28°C° 0 mm 3 mps 688 mmHg 36%

    Day after tomorrow, 25 August, Sunday

    Time Temperature Precipitation Wind Pressure Humidity
    00:00 +26°C° 0 mm 2 mps 688 mmHg 40%
    01:00 +26°C° 0 mm 2 mps 688 mmHg 42%
    02:00 +25°C° 0 mm 1 mps 688 mmHg 44%
    03:00 +24°C° 0 mm 1 mps 687 mmHg 46%
    04:00 +24°C° 0 mm 1 mps 687 mmHg 47%
    05:00 +24°C° 0 mm 1 mps 687 mmHg 48%
    06:00 +24°C° 0 mm 1 mps 687 mmHg 49%
    07:00 +26°C° 0 mm 1 mps 688 mmHg 44%
    08:00 +27°C° 0 mm 1 mps 688 mmHg 39%
    09:00 +29°C° 0 mm 1 mps 688 mmHg 33%
    10:00 +31°C° 0 mm 1 mps 688 mmHg 30%
    11:00 +33°C° 0 mm 1 mps 688 mmHg 26%
    12:00 +34°C° 0 mm 1 mps 688 mmHg 22%
    13:00 +35°C° 0 mm 1 mps 687 mmHg 20%
    14:00 +38°C° 0 mm 2 mps 687 mmHg 17%
    15:00 +39°C° 0 mm 2 mps 687 mmHg 15%
    16:00 +38°C° 0 mm 2 mps 687 mmHg 15%
    17:00 +38°C° 0 mm 2 mps 687 mmHg 15%
    18:00 +38°C° 0 mm 2 mps 687 mmHg 15%
    19:00 +36°C° 0 mm 2 mps 687 mmHg 19%
    20:00 +32°C° 0 mm 2 mps 687 mmHg 22%
    21:00 +30°C° 0 mm 2 mps 687 mmHg 25%
    22:00 +29°C° 0 mm 2 mps 687 mmHg 27%
    23:00 +28°C° 0 mm 2 mps 687 mmHg 29%

    26 August, Monday

    Time Temperature Precipitation Wind Pressure Humidity
    00:00 +28°C° 0 mm 3 mps 687 mmHg 32%
    01:00 +27°C° 0 mm 2 mps 687 mmHg 33%
    02:00 +26°C° 0 mm 1 mps 687 mmHg 35%
    03:00 +25°C° 0 mm 1 mps 687 mmHg 36%
    04:00 +25°C° 0 mm 1 mps 687 mmHg 37%
    05:00 +23°C° 0 mm 0 mps 687 mmHg 37%
    06:00 +23°C° 0 mm 0 mps 687 mmHg 38%
    07:00 +27°C° 0 mm 1 mps 688 mmHg 33%
    08:00 +29°C° 0 mm 1 mps 688 mmHg 29%
    09:00 +31°C° 0 mm 1 mps 688 mmHg 24%
    10:00 +33°C° 0 mm 1 mps 688 mmHg 21%
    11:00 +35°C° 0 mm 2 mps 688 mmHg 19%
    12:00 +37°C° 0 mm 2 mps 688 mmHg 16%
    13:00 +38°C° 0 mm 2 mps 688 mmHg 15%
    14:00 +39°C° 0 mm 3 mps 688 mmHg 13%
    15:00 +40°C° 0 mm 3 mps 688 mmHg 12%
    16:00 +39°C° 0 mm 3 mps 688 mmHg 14%
    17:00 +38°C° 0 mm 4 mps 688 mmHg 15%
    18:00 +37°C° 0 mm 4 mps 688 mmHg 16%
    19:00 +34°C° 0 mm 4 mps 688 mmHg 20%
    20:00 +31°C° 0 mm 3 mps 688 mmHg 24%
    21:00 +29°C° 0 mm 3 mps 689 mmHg 28%
    22:00 +28°C° 0 mm 3 mps 689 mmHg 32%
    23:00 +27°C° 0 mm 2 mps 689 mmHg 37%

    27 August, Tuesday

    Time Temperature Precipitation Wind Pressure Humidity
    00:00 +26°C° 0 mm 2 mps 689 mmHg 41%
    01:00 +25°C° 0 mm 2 mps 688 mmHg 44%
    02:00 +24°C° 0 mm 2 mps 688 mmHg 46%
    03:00 +23°C° 0 mm 2 mps 688 mmHg 49%
    04:00 +23°C° 0 mm 1 mps 688 mmHg 49%
    05:00 +23°C° 0 mm 1 mps 688 mmHg 50%
    06:00 +23°C° 0 mm 1 mps 688 mmHg 50%
    07:00 +25°C° 0 mm 1 mps 689 mmHg 44%
    08:00 +27°C° 0 mm 1 mps 689 mmHg 39%
    09:00 +29°C° 0 mm 2 mps 689 mmHg 33%
    10:00 +31°C° 0 mm 2 mps 689 mmHg 29%
    11:00 +34°C° 0 mm 2 mps 688 mmHg 25%
    12:00 +36°C° 0 mm 3 mps 688 mmHg 21%
    13:00 +37°C° 0 mm 3 mps 688 mmHg 19%
    14:00 +38°C° 0 mm 4 mps 687 mmHg 17%
    15:00 +40°C° 0 mm 5 mps 687 mmHg 16%
    16:00 +39°C° 0 mm 5 mps 687 mmHg 17%
    17:00 +37°C° 0 mm 5 mps 687 mmHg 18%
    18:00 +36°C° 0 mm 5 mps 686 mmHg 19%
    19:00 +34°C° 0 mm 4 mps 686 mmHg 24%
    20:00 +32°C° 0 mm 4 mps 686 mmHg 29%
    21:00 +29°C° 0 mm 3 mps 686 mmHg 34%
    22:00 +28°C° 0 mm 3 mps 686 mmHg 36%
    23:00 +27°C° 0 mm 2 mps 686 mmHg 38%

    28 August, Wednesday

    Time Temperature Precipitation Wind Pressure Humidity
    00:00 +26°C° 0 mm 2 mps 686 mmHg 40%
    01:00 +25°C° 0 mm 1 mps 685 mmHg 43%
    02:00 +25°C° 0 mm 1 mps 685 mmHg 46%
    03:00 +22°C° 0 mm 0 mps 685 mmHg 48%
    04:00 +22°C° 0 mm 0 mps 685 mmHg 49%
    05:00 +22°C° 0 mm 0 mps 685 mmHg 50%
    06:00 +21°C° 0 mm 0 mps 685 mmHg 51%
    07:00 +25°C° 0 mm 1 mps 686 mmHg 46%
    08:00 +27°C° 0 mm 1 mps 686 mmHg 40%
    09:00 +29°C° 0 mm 2 mps 686 mmHg 35%
    10:00 +31°C° 0 mm 2 mps 686 mmHg 31%
    11:00 +34°C° 0 mm 2 mps 686 mmHg 26%
    12:00 +35°C° 0 mm 2 mps 686 mmHg 22%
    13:00 +36°C° 0 mm 3 mps 686 mmHg 20%
    14:00 +37°C° 0 mm 3 mps 686 mmHg 18%
    15:00 +38°C° 0 mm 3 mps 685 mmHg 15%
    16:00 +37°C° 0 mm 3 mps 685 mmHg 16%
    17:00 +37°C° 0 mm 3 mps 686 mmHg 17%
    18:00 +36°C° 0 mm 3 mps 686 mmHg 18%
    19:00 +34°C° 0 mm 3 mps 686 mmHg 23%
    20:00 +30°C° 0 mm 2 mps 686 mmHg 28%
    21:00 +28°C° 0 mm 2 mps 686 mmHg 34%
    22:00 +27°C° 0 mm 2 mps 686 mmHg 36%
    23:00 +26°C° 0 mm 2 mps 687 mmHg 39%
    Show more